RH
29 40 42 47 50 52 51 55 60 63 73 68 69 75 81 79 83 82 75 71 69 69 68 72 70 70 74 69 66 68 67 68
28 39 43 47 53 54 51 61 64 75 70 68 70 73 81 82 83 73 71 67 67 68 70 70 73 73 76 68 72 73 67 65
30 38 45 48 52 52 57 56 64 68 64 67 67 69 79 85 85 74 66 65 66 63 70 73 72 69 71 71 72 75 72 75
29 38 45 46 50 53 56 56 61 64 62 68 75 81 84 83 84 77 68 65 65 66 68 73 75 72 72 72 69 75 73 73
27 38 46 47 46 50 53 56 61 58 63 66 70 76 77 80 84 78 69 64 64 66 68 70 72 73 70 69 64 74 72 75
28 34 40 44 46 50 57 56 57 57 67 62 65 68 70 85 81 73 70 66 63 64 68 70 70 71 70 68 64 62 75 77
28 29 40 45 51 54 60 59 56 58 63 64 59 70 85 84 83 80 76 73 71 70 66 70 68 68 67 68 64 58 61 71
35 36 44 48 54 55 54 59 57 56 62 65 63 67 79 75 78 82 84 80 75 69 66 67 67 66 64 66 66 65 66 71
44 42 41 44 45 48 47 54 55 56 60 62 63 72 82 84 79 79 72 66 64 60 60 64 62 65 72 74 78 74 75 74
53 48 46 46 44 44 47 51 52 58 63 71 80 70 64 63 63 59 60 61 53 59 61 69 71 68 69 73 73 75 72 77
53 52 52 48 52 49 53 55 63 74 78 69 68 63 60 62 61 59 58 59 60 59 68 68 65 69 70 73 73 71 67 74
62 70 75 71 64 68 76 76 72 70 67 62 63 64 59 58 60 61 58 59 57 63 64 64 67 66 67 66 64 65 62 66
74 73 72 75 75 74 72 68 66 63 61 61 62 60 58 57 56 56 58 59 65 65 64 63 65 62 65 66 61 62 64 66
72 70 70 71 70 67 64 59 56 54 55 58 57 55 52 53 55 58 62 63 65 62 63 67 65 65 62 61 62 64 65 64
72 71 69 67 62 59 56 55 52 52 50 50 54 50 52 61 62 63 65 64 65 63 65 65 66 61 56 58 57 67 68 64
66 67 62 58 58 56 52 52 48 44 44 45 55 59 59 59 62 66 65 65 63 64 65 67 66 62 58 75 71 71 70 68
55 50 50 50 48 48 47 48 45 42 47 50 50 52 52 60 63 65 63 61 61 63 67 75 75 59 66 64 62 67 66 65
52 50 48 47 46 46 47 44 45 45 45 45 47 49 50 57 58 58 60 62 61 64 74 80 81 76 67 66 61 66 67 70
52 51 49 48 44 41 42 41 43 45 45 45 46 49 51 54 56 57 58 61 63 64 81 81 77 67 67 67 63 69 71 70
Wind_Speed
17 16 15 15 14 12 12 8 8 6 4 3 3 4 3 3 4 5 6 5 6 6 5 5 5 5 5 4 5 4 3 4
14 16 15 14 11 13 13 11 8 5 2 3 3 4 2 2 3 6 7 6 6 6 4 5 5 6 4 5 3 5 5 8
11 15 15 17 15 14 13 13 11 6 4 3 3 4 1 2 3 5 6 6 6 5 6 5 6 4 6 6 6 4 4 5
15 16 16 15 16 16 15 14 13 8 7 3 4 4 3 2 1 3 3 6 6 6 6 6 5 4 4 4 5 5 3 3
14 16 15 18 16 14 14 12 12 10 9 5 5 5 5 4 4 3 4 6 6 6 5 6 5 3 5 4 3 2 2 3
18 19 20 16 15 14 12 12 11 8 8 8 6 5 3 3 4 6 5 3 4 5 6 5 5 3 3 4 3 3 1 0
17 11 11 11 10 10 9 12 11 8 8 8 9 7 6 6 5 4 4 3 3 4 5 5 4 3 2 1 1 1 2 1
12 13 14 11 13 12 11 13 13 11 9 8 8 8 8 10 8 4 5 3 2 3 3 3 2 1 1 1 4 5 5 5
7 6 8 14 15 14 14 13 12 12 8 8 5 7 5 5 5 4 4 4 3 3 4 3 5 6 5 6 6 7 8 7
9 7 5 7 10 14 14 13 9 8 6 7 8 9 12 10 9 8 7 5 5 5 6 6 7 8 8 9 6 6 6 4
7 6 4 5 7 6 6 7 7 8 11 11 10 11 11 10 9 8 8 7 8 8 7 7 8 8 7 7 5 5 5 4
7 7 7 3 8 10 10 12 14 14 13 12 12 10 11 10 10 9 10 9 8 7 7 8 8 7 6 6 5 5 5 5
9 9 11 12 13 14 15 15 16 14 13 13 13 12 12 11 10 9 9 10 8 8 7 8 6 6 5 6 5 5 5 6
10 11 12 13 14 15 16 15 15 13 13 14 13 12 11 10 10 10 9 8 8 7 7 6 5 5 5 5 5 5 6 6
11 10 12 13 14 14 16 14 13 13 14 13 12 11 11 10 8 8 8 7 7 6 6 5 5 5 7 6 6 6 6 6
11 11 11 12 13 13 14 13 12 13 14 13 10 8 9 9 8 8 7 7 6 5 6 6 6 7 6 5 5 6 6 6
13 13 14 13 13 12 12 12 11 12 12 11 8 9 9 8 7 7 7 6 6 6 7 7 6 6 11 12 9 5 6 6
13 13 13 12 12 12 12 11 10 11 10 9 9 9 9 7 6 7 6 6 6 7 6 6 6 5 10 11 12 5 5 6
14 12 12 11 12 12 11 10 10 10 9 9 8 8 8 6 6 6 6 5 6 5 5 5 4 5 8 11 10 4 5 6
Wind_Direction
172 165 162 157 156 154 151 152 159 160 159 127 106 101 119 112 107 97 91 77 75 80 68 61 57 52 32 24 30 9 12 334
166 167 161 157 155 157 158 152 162 150 146 141 107 121 144 101 112 110 100 93 81 77 71 62 58 61 49 32 21 15 2 354
167 167 165 169 164 165 163 165 159 166 154 163 145 136 168 140 142 109 110 104 101 91 86 72 70 66 46 37 41 8 1 10
172 173 173 171 170 170 170 170 166 165 174 117 77 75 74 83 97 114 124 115 112 109 97 90 84 80 69 56 41 39 2 346
169 172 178 181 178 171 171 169 169 175 164 142 150 160 171 192 167 142 128 132 130 117 101 96 99 92 77 69 55 39 32 15
181 183 183 179 170 171 169 168 173 176 163 159 165 172 160 134 121 139 142 143 122 111 103 104 96 86 97 92 62 30 65 81
192 170 160 167 166 161 156 170 182 186 172 163 166 177 154 137 147 161 150 99 88 97 92 101 97 92 96 132 216 322 341 272
162 159 164 163 169 167 164 173 186 193 170 174 158 166 164 165 166 143 128 125 106 113 90 75 58 59 16 342 344 340 344 352
94 134 162 173 173 173 176 179 184 190 171 173 158 141 109 84 101 117 108 107 96 93 80 61 28 24 32 39 40 40 43 48
63 84 119 168 183 182 178 178 179 172 158 90 87 98 105 104 88 85 90 100 103 65 46 55 55 47 49 66 59 49 38 40
46 40 34 183 164 161 119 98 94 91 90 99 94 94 95 100 99 95 85 76 67 67 55 54 54 55 59 73 57 43 40 11
52 26 2 28 105 106 97 92 96 93 93 92 88 84 86 82 81 84 93 85 77 68 60 57 68 66 55 62 73 38 25 359
73 62 58 69 86 91 98 99 95 93 95 91 87 84 80 78 75 76 68 67 56 61 60 66 77 72 67 67 48 19 11 355
74 70 73 82 88 93 93 91 93 94 93 91 87 85 83 80 75 68 61 63 61 54 57 63 79 65 63 52 33 10 357 344
94 85 84 84 85 89 91 89 89 92 90 87 84 82 79 78 73 66 63 57 54 48 46 57 96 74 53 33 16 1 344 344
107 98 92 92 91 91 90 88 88 92 90 86 81 78 81 76 69 64 58 53 48 41 44 45 86 68 47 19 7 351 341 344
117 110 107 103 102 99 95 91 89 91 89 90 88 82 80 72 66 60 53 41 35 38 44 62 61 63 40 26 18 347 357 1
126 122 116 111 108 107 101 100 97 91 92 91 85 84 77 68 65 57 45 37 42 41 65 83 75 66 39 24 14 353 4 339
128 124 115 112 110 104 105 101 97 95 88 86 84 88 82 73 65 56 44 42 46 54 82 100 99 70 41 27 11 341 340 329